Simultaneous Nadir Overpasses (SNOs) Predictions

Prediction of SNOs between GOES-15 and METOP-C Satellite Orbit:

Table of predicted SNOs for the next 14.0 days since TLE Epoch: 7/21/2023
Index Date Time (GOES-15) GOES-15 Lat,Lon METOP-C Lat,Lon Distance(km) Time Diff (sec)
1 07/21/2023 22:18:32 -0.08, 170.33 0.41, 168.21 242.20 80
2 07/22/2023 21:55:17 -0.12, 169.34 -0.99, 173.15 434.41 80
3 07/24/2023 10:14:19 0.09, 167.83 0.21, 168.50 75.42 80
4 07/25/2023 22:35:55 -0.04, 166.27 0.48, 163.87 273.12 80
5 07/26/2023 22:12:39 -0.09, 165.27 -0.86, 168.81 403.21 80
6 07/28/2023 10:31:42 0.05, 163.78 0.16, 164.15 43.72 80
7 07/29/2023 22:53:17 -0.01, 162.22 0.59, 159.53 305.71 80
8 07/30/2023 22:30:01 -0.06, 161.22 -0.76, 164.48 370.09 80
9 08/01/2023 10:49:03 0.02, 159.73 0.02, 159.83 10.35 80
10 08/02/2023 23:10:39 0.02, 158.17 0.67, 155.19 339.24 80
11 08/03/2023 22:47:23 -0.03, 157.18 -0.69, 160.14 336.87 80
